Вернуться в каталог

COSMOS 2524

АктивенНавигацияLEO
NORAD 43032·PAYLOAD·🇷🇺 Russia

Запущен Dec 2, 2017 с Plesetsk Cosmodrome

Loading…

Ближайшие Пролёты (ближайшие 24 часа)

TLE

СвежийSource: Space-Track

Эпоха: Sep 14, 2026, 22:08 UTC

1 43032U 17076A   26257.92247845  .00000128  00000-0  14490-3 0  9998
2 43032  67.1490 334.0941 0002163 294.9118  65.1742 13.97437422448149

Отслеживайте COSMOS 2524 в реальном времени с AllMySat

Download on the App Store